Voltar ao catálogo

ARIANE 44L DEB

AtivoHEO
NORAD 24723·DEBRIS·🇫🇷 France

Lançado Jan 15, 1991 de Guiana Space Centre

Loading…

Próximas Passagens (próximas 24 horas)

TLE

AtualizadoSource: Space-Track

Época: Sep 14, 2026, 16:15 UTC

1 24723U 91003F   26257.67719480 -.00000100  00000-0  50272-3 0  9996
2 24723   6.7620  44.4427 6845865 119.6194 302.1186  2.65128094293629

Acompanhe ARIANE 44L DEB em tempo real com AllMySat

Download on the App Store